• In Deutschland
  • Länderverzeichnis
  • Für 7 Tage
  • Wassertemperatur
  • Satellitenkarten
  • Wetterkarte
  • Widgets
  • user-avatar
    Anmelden

    Stündliche Wetter Hennigsdorf

    Heute, 18 Oktober, Mittwoch

    Zeit Temperatur Niederschläge Wind Luftdruck Luftfeuchtigkeit
    00:00 +14°C° 0 mm 1 m/S 759 mmHg 88%
    01:00 +14°C° 0 mm 1 m/S 759 mmHg 89%
    02:00 +14°C° 0 mm 1 m/S 759 mmHg 89%
    03:00 +13°C° 0 mm 1 m/S 758 mmHg 89%
    04:00 +13°C° 0 mm 1 m/S 758 mmHg 89%
    05:00 +13°C° 0 mm 1 m/S 758 mmHg 89%
    06:00 +12°C° 0 mm 1 m/S 758 mmHg 88%
    07:00 +11°C° 0 mm 0 m/S 758 mmHg 88%
    08:00 +14°C° 0 mm 1 m/S 758 mmHg 81%
    09:00 +15°C° 0 mm 1 m/S 758 mmHg 74%
    10:00 +18°C° 0 mm 1 m/S 758 mmHg 66%
    11:00 +19°C° 0 mm 1 m/S 758 mmHg 63%
    12:00 +20°C° 0 mm 1 m/S 757 mmHg 60%
    13:00 +21°C° 0 mm 1 m/S 757 mmHg 57%
    14:00 +21°C° 0 mm 1 m/S 757 mmHg 60%
    15:00 +20°C° 0 mm 1 m/S 757 mmHg 63%
    16:00 +20°C° 0 mm 1 m/S 756 mmHg 65%
    17:00 +19°C° 0 mm 1 m/S 756 mmHg 69%
    18:00 +16°C° 0 mm 2 m/S 756 mmHg 73%
    19:00 +15°C° 0 mm 2 m/S 757 mmHg 77%
    20:00 +14°C° 0 mm 2 m/S 757 mmHg 79%
    21:00 +14°C° 0 mm 2 m/S 757 mmHg 80%
    22:00 +14°C° 0 mm 2 m/S 757 mmHg 82%
    23:00 +13°C° 0 mm 2 m/S 757 mmHg 83%

    Morgen, 19 Oktober, Donnerstag

    Zeit Temperatur Niederschläge Wind Luftdruck Luftfeuchtigkeit
    00:00 +13°C° 0 mm 2 m/S 756 mmHg 85%
    01:00 +13°C° 0 mm 2 m/S 756 mmHg 86%
    02:00 +12°C° 0 mm 1 m/S 756 mmHg 88%
    03:00 +12°C° 0 mm 1 m/S 756 mmHg 89%
    04:00 +12°C° 0 mm 1 m/S 756 mmHg 90%
    05:00 +12°C° 0 mm 1 m/S 756 mmHg 91%
    06:00 +11°C° 0 mm 1 m/S 756 mmHg 92%
    07:00 +11°C° 0 mm 1 m/S 756 mmHg 93%
    08:00 +13°C° 0 mm 1 m/S 756 mmHg 87%
    09:00 +14°C° 0 mm 1 m/S 756 mmHg 81%
    10:00 +16°C° 0 mm 1 m/S 757 mmHg 75%
    11:00 +18°C° 0 mm 1 m/S 756 mmHg 71%
    12:00 +19°C° 0 mm 1 m/S 756 mmHg 67%
    13:00 +20°C° 0 mm 1 m/S 756 mmHg 62%
    14:00 +20°C° 0 mm 1 m/S 756 mmHg 64%
    15:00 +20°C° 0 mm 1 m/S 756 mmHg 66%
    16:00 +19°C° 0 mm 1 m/S 756 mmHg 68%
    17:00 +18°C° 0 mm 1 m/S 756 mmHg 72%
    18:00 +16°C° 0 mm 1 m/S 756 mmHg 77%
    19:00 +15°C° 0 mm 2 m/S 757 mmHg 81%
    20:00 +14°C° 0 mm 2 m/S 757 mmHg 83%
    21:00 +14°C° 0 mm 2 m/S 757 mmHg 84%
    22:00 +14°C° 0 mm 2 m/S 757 mmHg 86%
    23:00 +13°C° 0 mm 2 m/S 757 mmHg 86%

    übermorgen, 20 Oktober, Freitag

    Zeit Temperatur Niederschläge Wind Luftdruck Luftfeuchtigkeit
    00:00 +13°C° 0 mm 2 m/S 757 mmHg 86%
    01:00 +13°C° 0 mm 2 m/S 757 mmHg 86%
    02:00 +13°C° 0 mm 2 m/S 757 mmHg 85%
    03:00 +13°C° 0 mm 2 m/S 757 mmHg 84%
    04:00 +14°C° 0 mm 2 m/S 757 mmHg 83%
    05:00 +14°C° 0 mm 2 m/S 757 mmHg 83%
    06:00 +14°C° 0 mm 2 m/S 757 mmHg 82%
    07:00 +14°C° 0 mm 2 m/S 757 mmHg 82%
    08:00 +14°C° 0 mm 3 m/S 758 mmHg 79%
    09:00 +16°C° 0 mm 3 m/S 758 mmHg 75%
    10:00 +16°C° 0 mm 3 m/S 758 mmHg 72%
    11:00 +17°C° 0 mm 3 m/S 758 mmHg 68%
    12:00 +18°C° 0 mm 3 m/S 758 mmHg 65%
    13:00 +19°C° 0 mm 3 m/S 758 mmHg 62%
    14:00 +19°C° 0 mm 3 m/S 758 mmHg 64%
    15:00 +19°C° 0 mm 3 m/S 758 mmHg 66%
    16:00 +18°C° 0 mm 2 m/S 758 mmHg 68%
    17:00 +18°C° 0 mm 3 m/S 758 mmHg 71%
    18:00 +17°C° 0 mm 3 m/S 758 mmHg 73%
    19:00 +16°C° 0 mm 3 m/S 758 mmHg 75%
    20:00 +16°C° 0 mm 3 m/S 758 mmHg 77%
    21:00 +16°C° 0 mm 3 m/S 758 mmHg 78%
    22:00 +14°C° 0 mm 3 m/S 759 mmHg 79%
    23:00 +14°C° 0 mm 3 m/S 759 mmHg 81%

    21 Oktober, Samstag

    Zeit Temperatur Niederschläge Wind Luftdruck Luftfeuchtigkeit
    00:00 +14°C° 0 mm 3 m/S 759 mmHg 82%
    01:00 +13°C° 0 mm 3 m/S 759 mmHg 83%
    02:00 +14°C° 0 mm 2 m/S 758 mmHg 85%
    03:00 +13°C° 0 mm 2 m/S 758 mmHg 86%
    04:00 +13°C° 0 mm 2 m/S 758 mmHg 88%
    05:00 +13°C° 0 mm 2 m/S 758 mmHg 88%
    06:00 +12°C° 0 mm 2 m/S 758 mmHg 89%
    07:00 +12°C° 0 mm 2 m/S 758 mmHg 89%
    08:00 +13°C° 0 mm 2 m/S 758 mmHg 83%
    09:00 +15°C° 0 mm 2 m/S 758 mmHg 77%
    10:00 +16°C° 0 mm 2 m/S 758 mmHg 71%
    11:00 +18°C° 0 mm 3 m/S 758 mmHg 67%
    12:00 +19°C° 0 mm 3 m/S 757 mmHg 63%
    13:00 +20°C° 0 mm 3 m/S 757 mmHg 59%
    14:00 +19°C° 0 mm 3 m/S 757 mmHg 61%
    15:00 +19°C° 0 mm 3 m/S 756 mmHg 64%
    16:00 +18°C° 0 mm 2 m/S 756 mmHg 66%
    17:00 +18°C° 0 mm 2 m/S 756 mmHg 70%
    18:00 +17°C° 0 mm 2 m/S 756 mmHg 73%
    19:00 +16°C° 0 mm 2 m/S 756 mmHg 77%
    20:00 +16°C° 0,2 mm 2 m/S 756 mmHg 79%
    21:00 +16°C° 0,2 mm 2 m/S 756 mmHg 81%
    22:00 +15°C° 0,2 mm 2 m/S 756 mmHg 84%
    23:00 +14°C° 0,5 mm 3 m/S 756 mmHg 86%

    22 Oktober, Sonntag

    Zeit Temperatur Niederschläge Wind Luftdruck Luftfeuchtigkeit
    00:00 +14°C° 0,5 mm 3 m/S 756 mmHg 88%
    01:00 +14°C° 0,5 mm 3 m/S 756 mmHg 90%
    02:00 +14°C° 0,7 mm 3 m/S 756 mmHg 91%
    03:00 +13°C° 0,7 mm 3 m/S 756 mmHg 91%
    04:00 +13°C° 0,7 mm 3 m/S 756 mmHg 92%
    05:00 +13°C° 0 mm 3 m/S 756 mmHg 91%
    06:00 +12°C° 0 mm 3 m/S 756 mmHg 90%
    07:00 +12°C° 0 mm 3 m/S 756 mmHg 90%
    08:00 +12°C° 0 mm 3 m/S 756 mmHg 85%
    09:00 +13°C° 0 mm 4 m/S 756 mmHg 80%
    10:00 +13°C° 0 mm 4 m/S 756 mmHg 76%
    11:00 +13°C° 0 mm 4 m/S 756 mmHg 72%
    12:00 +14°C° 0 mm 4 m/S 756 mmHg 68%
    13:00 +14°C° 0 mm 4 m/S 756 mmHg 64%
    14:00 +14°C° 0 mm 4 m/S 756 mmHg 65%
    15:00 +13°C° 0 mm 3 m/S 756 mmHg 67%
    16:00 +12°C° 0 mm 3 m/S 756 mmHg 69%
    17:00 +12°C° 0 mm 3 m/S 756 mmHg 71%
    18:00 +12°C° 0 mm 2 m/S 757 mmHg 73%
    19:00 +10°C° 0 mm 2 m/S 757 mmHg 75%
    20:00 +10°C° 0 mm 2 m/S 757 mmHg 78%
    21:00 +9°C° 0 mm 2 m/S 757 mmHg 80%
    22:00 +9°C° 0 mm 2 m/S 757 mmHg 83%
    23:00 +8°C° 0 mm 2 m/S 757 mmHg 84%

    23 Oktober, Montag

    Zeit Temperatur Niederschläge Wind Luftdruck Luftfeuchtigkeit
    00:00 +8°C° 0 mm 2 m/S 757 mmHg 86%
    01:00 +8°C° 0 mm 2 m/S 758 mmHg 87%
    02:00 +8°C° 0 mm 2 m/S 758 mmHg 89%
    03:00 +7°C° 0 mm 2 m/S 758 mmHg 90%
    04:00 +7°C° 0 mm 2 m/S 758 mmHg 91%
    05:00 +7°C° 0 mm 2 m/S 759 mmHg 91%
    06:00 +7°C° 0 mm 2 m/S 759 mmHg 92%
    07:00 +6°C° 0 mm 2 m/S 759 mmHg 92%
    08:00 +8°C° 0 mm 2 m/S 759 mmHg 86%
    09:00 +9°C° 0 mm 3 m/S 760 mmHg 80%
    10:00 +10°C° 0 mm 3 m/S 760 mmHg 74%
    11:00 +11°C° 0 mm 3 m/S 760 mmHg 71%
    12:00 +12°C° 0 mm 3 m/S 760 mmHg 67%
    13:00 +13°C° 0 mm 3 m/S 761 mmHg 64%
    14:00 +12°C° 0 mm 3 m/S 761 mmHg 67%
    15:00 +12°C° 0 mm 3 m/S 761 mmHg 69%
    16:00 +13°C° 0 mm 2 m/S 761 mmHg 71%
    17:00 +12°C° 0 mm 2 m/S 761 mmHg 76%
    18:00 +10°C° 0 mm 2 m/S 762 mmHg 81%
    19:00 +9°C° 0 mm 2 m/S 762 mmHg 86%
    20:00 +9°C° 0 mm 2 m/S 762 mmHg 87%
    21:00 +8°C° 0 mm 2 m/S 762 mmHg 88%
    22:00 +8°C° 0 mm 2 m/S 763 mmHg 90%
    23:00 +8°C° 0 mm 2 m/S 763 mmHg 90%
    Mehr zeigen